TimeCST,TemperatureF,Dew PointF,Humidity,Sea Level PressureIn,VisibilityMPH,Wind Direction,Wind SpeedMPH,Gust SpeedMPH,PrecipitationIn,Events,Conditions,WindDirDegrees,DateUTC
12:56 AM,19.0,10.0,68,30.33,10.0,NW,15.0,-,0.00,,Overcast,320,2013-02-01 06:56:00
1:56 AM,16.2,9.1,74,30.37,10.0,NNW,17.3,-,0.00,,Mostly Cloudy,330,2013-02-01 07:56:00
2:56 AM,14.0,4.1,65,30.39,10.0,NW,18.4,-,N/A,,Clear,320,2013-02-01 08:56:00
4:56 AM,12.0,3.0,67,30.43,10.0,NW,11.5,-,N/A,,Clear,320,2013-02-01 10:56:00
5:56 AM,12.0,2.1,65,30.45,10.0,NW,8.1,-,N/A,,Clear,320,2013-02-01 11:56:00
6:56 AM,12.0,3.0,67,30.48,10.0,NW,9.2,-,N/A,,Clear,310,2013-02-01 12:56:00
7:56 AM,14.0,5.0,67,30.50,10.0,NW,8.1,-,N/A,,Clear,310,2013-02-01 13:56:00
8:56 AM,15.1,4.1,62,30.53,10.0,WNW,12.7,-,N/A,,Scattered Clouds,290,2013-02-01 14:56:00
9:56 AM,18.1,6.1,59,30.54,10.0,WNW,9.2,-,N/A,,Scattered Clouds,290,2013-02-01 15:56:00
10:56 AM,20.1,9.1,62,30.55,10.0,West,11.5,-,N/A,,Scattered Clouds,270,2013-02-01 16:56:00
11:56 AM,20.1,8.1,60,30.53,10.0,WNW,11.5,-,N/A,,Scattered Clouds,290,2013-02-01 17:56:00
12:56 PM,21.0,9.1,60,30.50,10.0,WSW,9.2,-,N/A,,Scattered Clouds,240,2013-02-01 18:56:00
1:56 PM,22.1,8.1,55,30.47,10.0,WNW,8.1,-,N/A,,Partly Cloudy,300,2013-02-01 19:56:00
2:56 PM,24.1,10.0,55,30.46,10.0,West,5.8,-,N/A,,Clear,280,2013-02-01 20:56:00
3:56 PM,24.1,9.1,53,30.46,10.0,West,6.9,-,N/A,,Clear,280,2013-02-01 21:56:00
5:56 PM,23.0,11.1,60,30.43,10.0,ESE,3.5,-,N/A,,Clear,110,2013-02-01 23:56:00
6:56 PM,23.0,13.1,66,30.42,10.0,South,4.6,-,N/A,,Clear,170,2013-02-02 00:56:00
7:56 PM,24.1,15.1,69,30.41,10.0,SE,3.5,-,N/A,,Clear,140,2013-02-02 01:56:00
8:56 PM,25.2,15.1,66,30.40,10.0,SSE,5.8,-,N/A,,Scattered Clouds,160,2013-02-02 02:56:00
9:56 PM,25.2,17.1,71,30.38,10.0,South,6.9,-,N/A,,Clear,190,2013-02-02 03:56:00
10:56 PM,26.1,18.1,72,30.36,10.0,South,8.1,-,N/A,,Clear,180,2013-02-02 04:56:00
11:56 PM,27.1,17.1,66,30.34,10.0,South,9.2,-,N/A,,Partly Cloudy,190,2013-02-02 05:56:00